This is the latest recevied weather packets stored in our database for station/object KD4WLE. If no packets are shown the sender has not sent any weather packets the latest 10 day(s).
| Time | Temp. | Humidity | Pressure | Rain* | Wind** | Luminosity | Snow |
|---|---|---|---|---|---|---|---|
| 1777807140 | 17.22° C | 99% | 1016.5 hPa | 0 mm | - | 12 W/m² | - |
| 1777806838 | 17.22° C | 99% | 1016.5 hPa | 0 mm | - | 19 W/m² | - |
| 1777806533 | 17.22° C | 99% | 1016.4 hPa | 0 mm | - | 13 W/m² | - |
| 1777806230 | 17.22° C | 99% | 1016.3 hPa | 0 mm | - | 11 W/m² | - |
| 1777805926 | 17.22° C | 99% | 1016.3 hPa | 0 mm | - | 9 W/m² | - |
| 1777805623 | 17.22° C | 99% | 1016.3 hPa | 0 mm | - | 5 W/m² | - |
| 1777805321 | 17.22° C | 99% | 1016.2 hPa | 0 mm | - | 2 W/m² | - |
| 1777805013 | 17.22° C | 99% | 1016.1 hPa | 0 mm | - | 2 W/m² | - |
| 1777804710 | 17.22° C | 99% | 1016.3 hPa | 0 mm | - | 1 W/m² | - |
| 1777804408 | 17.22° C | 99% | 1016 hPa | 0 mm | - | 0 W/m² | - |
| 1777804105 | 17.22° C | 99% | 1015.9 hPa | 0 mm | - | 0 W/m² | - |
| 1777803802 | 17.22° C | 99% | 1015.9 hPa | 0 mm | - | 0 W/m² | - |
| 1777803497 | 17.22° C | 99% | 1016 hPa | 0 mm | - | 0 W/m² | - |
| 1777803195 | 17.22° C | 99% | 1016 hPa | 0 mm | - | 0 W/m² | - |
| 1777802892 | 17.22° C | 99% | 1015.9 hPa | 0 mm | - | 0 W/m² | - |
| 1777802590 | 17.22° C | 99% | 1015.9 hPa | 0 mm | - | 0 W/m² | - |
| 1777802287 | 17.22° C | 99% | 1016.1 hPa | 0 mm | - | 0 W/m² | - |
| 1777801986 | 17.22° C | 99% | 1016 hPa | 0 mm | - | 0 W/m² | - |
| 1777801682 | 17.22° C | 99% | 1015.7 hPa | 0 mm | - | 0 W/m² | - |
| 1777801380 | 17.78° C | 99% | 1015.7 hPa | 0 mm | - | 0 W/m² | - |
| 1777801076 | 17.78° C | 99% | 1015.6 hPa | 0 mm | - | 0 W/m² | - |
| 1777800773 | 17.78° C | 99% | 1015.4 hPa | 0 mm | - | 0 W/m² | - |
| 1777800468 | 17.78° C | 99% | 1015.7 hPa | 0 mm | - | 0 W/m² | - |
| 1777800165 | 17.78° C | 99% | 1015.9 hPa | 0 mm | - | 0 W/m² | - |
| 1777799859 | 17.78° C | 99% | 1015.4 hPa | 0 mm | - | 0 W/m² | - |
* Rain latest hour (hover to see other rain measurements)
** Current wind speed in m/s (hover to see current wind gust speed)